timestamp,waterbody_station,lease,latitude,longitude,deployment_start_date,deployment_end_date,sensor,depth,mooring,Temperature_degrees Celsius,Dissolved Oxygen_percent saturation
2017-11-09T00:00:00,Caribou Harbour-Waterside,1351.0,45.75625,-62.770311,2017-06-24,2017-11-28,HOBO-10755242,1.0,float,7.041,
2017-11-09T00:15:00,Caribou Harbour-Waterside,1351.0,45.75625,-62.770311,2017-06-24,2017-11-28,HOBO-10755242,1.0,float,7.419,
2017-11-09T00:30:00,Caribou Harbour-Waterside,1351.0,45.75625,-62.770311,2017-06-24,2017-11-28,HOBO-10755242,1.0,float,7.67,
2017-11-09T00:45:00,Caribou Harbour-Waterside,1351.0,45.75625,-62.770311,2017-06-24,2017-11-28,HOBO-10755242,1.0,float,7.82,
2017-11-09T01:00:00,Caribou Harbour-Waterside,1351.0,45.75625,-62.770311,2017-06-24,2017-11-28,HOBO-10755242,1.0,float,7.845,
2017-11-09T01:15:00,Caribou Harbour-Waterside,1351.0,45.75625,-62.770311,2017-06-24,2017-11-28,HOBO-10755242,1.0,float,7.92,
2017-11-09T01:30:00,Caribou Harbour-Waterside,1351.0,45.75625,-62.770311,2017-06-24,2017-11-28,HOBO-10755242,1.0,float,7.995,
2017-11-09T01:45:00,Caribou Harbour-Waterside,1351.0,45.75625,-62.770311,2017-06-24,2017-11-28,HOBO-10755242,1.0,float,8.295,
2017-11-09T02:00:00,Caribou Harbour-Waterside,1351.0,45.75625,-62.770311,2017-06-24,2017-11-28,HOBO-10755242,1.0,float,8.494,
2017-11-09T02:15:00,Caribou Harbour-Waterside,1351.0,45.75625,-62.770311,2017-06-24,2017-11-28,HOBO-10755242,1.0,float,8.494,
2017-11-09T02:30:00,Caribou Harbour-Waterside,1351.0,45.75625,-62.770311,2017-06-24,2017-11-28,HOBO-10755242,1.0,float,8.543,
2017-11-09T02:45:00,Caribou Harbour-Waterside,1351.0,45.75625,-62.770311,2017-06-24,2017-11-28,HOBO-10755242,1.0,float,8.593,
2017-11-09T03:00:00,Caribou Harbour-Waterside,1351.0,45.75625,-62.770311,2017-06-24,2017-11-28,HOBO-10755242,1.0,float,8.618,
2017-11-09T03:15:00,Caribou Harbour-Waterside,1351.0,45.75625,-62.770311,2017-06-24,2017-11-28,HOBO-10755242,1.0,float,8.568,
2017-11-09T03:30:00,Caribou Harbour-Waterside,1351.0,45.75625,-62.770311,2017-06-24,2017-11-28,HOBO-10755242,1.0,float,8.543,
2017-11-09T03:45:00,Caribou Harbour-Waterside,1351.0,45.75625,-62.770311,2017-06-24,2017-11-28,HOBO-10755242,1.0,float,8.568,
2017-11-09T04:00:00,Caribou Harbour-Waterside,1351.0,45.75625,-62.770311,2017-06-24,2017-11-28,HOBO-10755242,1.0,float,8.593,
2017-11-09T04:15:00,Caribou Harbour-Waterside,1351.0,45.75625,-62.770311,2017-06-24,2017-11-28,HOBO-10755242,1.0,float,8.593,
2017-11-09T04:30:00,Caribou Harbour-Waterside,1351.0,45.75625,-62.770311,2017-06-24,2017-11-28,HOBO-10755242,1.0,float,8.643,
2017-11-09T04:45:00,Caribou Harbour-Waterside,1351.0,45.75625,-62.770311,2017-06-24,2017-11-28,HOBO-10755242,1.0,float,8.668,
2017-11-09T05:00:00,Caribou Harbour-Waterside,1351.0,45.75625,-62.770311,2017-06-24,2017-11-28,HOBO-10755242,1.0,float,8.693,
2017-11-09T05:15:00,Caribou Harbour-Waterside,1351.0,45.75625,-62.770311,2017-06-24,2017-11-28,HOBO-10755242,1.0,float,8.717,
2017-11-09T05:30:00,Caribou Harbour-Waterside,1351.0,45.75625,-62.770311,2017-06-24,2017-11-28,HOBO-10755242,1.0,float,8.717,
2017-11-09T05:45:00,Caribou Harbour-Waterside,1351.0,45.75625,-62.770311,2017-06-24,2017-11-28,HOBO-10755242,1.0,float,8.668,
2017-11-09T06:00:00,Caribou Harbour-Waterside,1351.0,45.75625,-62.770311,2017-06-24,2017-11-28,HOBO-10755242,1.0,float,8.07,
2017-11-09T06:15:00,Caribou Harbour-Waterside,1351.0,45.75625,-62.770311,2017-06-24,2017-11-28,HOBO-10755242,1.0,float,7.895,
2017-11-09T06:30:00,Caribou Harbour-Waterside,1351.0,45.75625,-62.770311,2017-06-24,2017-11-28,HOBO-10755242,1.0,float,7.695,
2017-11-09T06:45:00,Caribou Harbour-Waterside,1351.0,45.75625,-62.770311,2017-06-24,2017-11-28,HOBO-10755242,1.0,float,7.72,
2017-11-09T07:00:00,Caribou Harbour-Waterside,1351.0,45.75625,-62.770311,2017-06-24,2017-11-28,HOBO-10755242,1.0,float,7.469,
2017-11-09T07:15:00,Caribou Harbour-Waterside,1351.0,45.75625,-62.770311,2017-06-24,2017-11-28,HOBO-10755242,1.0,float,7.544,
2017-11-09T07:30:00,Caribou Harbour-Waterside,1351.0,45.75625,-62.770311,2017-06-24,2017-11-28,HOBO-10755242,1.0,float,7.268,
2017-11-09T07:45:00,Caribou Harbour-Waterside,1351.0,45.75625,-62.770311,2017-06-24,2017-11-28,HOBO-10755242,1.0,float,6.56,
2017-11-09T08:00:00,Caribou Harbour-Waterside,1351.0,45.75625,-62.770311,2017-06-24,2017-11-28,HOBO-10755242,1.0,float,6.077,
2017-11-09T08:15:00,Caribou Harbour-Waterside,1351.0,45.75625,-62.770311,2017-06-24,2017-11-28,HOBO-10755242,1.0,float,5.719,
2017-11-09T08:30:00,Caribou Harbour-Waterside,1351.0,45.75625,-62.770311,2017-06-24,2017-11-28,HOBO-10755242,1.0,float,5.514,
2017-11-09T08:45:00,Caribou Harbour-Waterside,1351.0,45.75625,-62.770311,2017-06-24,2017-11-28,HOBO-10755242,1.0,float,5.514,
2017-11-09T09:00:00,Caribou Harbour-Waterside,1351.0,45.75625,-62.770311,2017-06-24,2017-11-28,HOBO-10755242,1.0,float,5.411,
2017-11-09T09:15:00,Caribou Harbour-Waterside,1351.0,45.75625,-62.770311,2017-06-24,2017-11-28,HOBO-10755242,1.0,float,5.308,
2017-11-09T09:30:00,Caribou Harbour-Waterside,1351.0,45.75625,-62.770311,2017-06-24,2017-11-28,HOBO-10755242,1.0,float,5.154,
2017-11-09T09:45:00,Caribou Harbour-Waterside,1351.0,45.75625,-62.770311,2017-06-24,2017-11-28,HOBO-10755242,1.0,float,5.024,
2017-11-09T10:00:00,Caribou Harbour-Waterside,1351.0,45.75625,-62.770311,2017-06-24,2017-11-28,HOBO-10755242,1.0,float,4.895,
2017-11-09T10:15:00,Caribou Harbour-Waterside,1351.0,45.75625,-62.770311,2017-06-24,2017-11-28,HOBO-10755242,1.0,float,4.74,
2017-11-09T10:30:00,Caribou Harbour-Waterside,1351.0,45.75625,-62.770311,2017-06-24,2017-11-28,HOBO-10755242,1.0,float,4.662,
2017-11-09T10:45:00,Caribou Harbour-Waterside,1351.0,45.75625,-62.770311,2017-06-24,2017-11-28,HOBO-10755242,1.0,float,4.61,
2017-11-09T11:00:00,Caribou Harbour-Waterside,1351.0,45.75625,-62.770311,2017-06-24,2017-11-28,HOBO-10755242,1.0,float,4.61,
2017-11-09T11:15:00,Caribou Harbour-Waterside,1351.0,45.75625,-62.770311,2017-06-24,2017-11-28,HOBO-10755242,1.0,float,4.584,
2017-11-09T11:30:00,Caribou Harbour-Waterside,1351.0,45.75625,-62.770311,2017-06-24,2017-11-28,HOBO-10755242,1.0,float,4.558,
2017-11-09T11:45:00,Caribou Harbour-Waterside,1351.0,45.75625,-62.770311,2017-06-24,2017-11-28,HOBO-10755242,1.0,float,4.506,
2017-11-09T12:00:00,Caribou Harbour-Waterside,1351.0,45.75625,-62.770311,2017-06-24,2017-11-28,HOBO-10755242,1.0,float,4.454,
2017-11-09T12:15:00,Caribou Harbour-Waterside,1351.0,45.75625,-62.770311,2017-06-24,2017-11-28,HOBO-10755242,1.0,float,4.428,
2017-11-09T12:30:00,Caribou Harbour-Waterside,1351.0,45.75625,-62.770311,2017-06-24,2017-11-28,HOBO-10755242,1.0,float,4.402,
2017-11-09T12:45:00,Caribou Harbour-Waterside,1351.0,45.75625,-62.770311,2017-06-24,2017-11-28,HOBO-10755242,1.0,float,4.428,
2017-11-09T13:00:00,Caribou Harbour-Waterside,1351.0,45.75625,-62.770311,2017-06-24,2017-11-28,HOBO-10755242,1.0,float,4.48,
2017-11-09T13:15:00,Caribou Harbour-Waterside,1351.0,45.75625,-62.770311,2017-06-24,2017-11-28,HOBO-10755242,1.0,float,4.532,
2017-11-09T13:30:00,Caribou Harbour-Waterside,1351.0,45.75625,-62.770311,2017-06-24,2017-11-28,HOBO-10755242,1.0,float,4.584,
2017-11-09T13:45:00,Caribou Harbour-Waterside,1351.0,45.75625,-62.770311,2017-06-24,2017-11-28,HOBO-10755242,1.0,float,4.688,
2017-11-09T14:00:00,Caribou Harbour-Waterside,1351.0,45.75625,-62.770311,2017-06-24,2017-11-28,HOBO-10755242,1.0,float,4.792,
2017-11-09T14:15:00,Caribou Harbour-Waterside,1351.0,45.75625,-62.770311,2017-06-24,2017-11-28,HOBO-10755242,1.0,float,4.869,
2017-11-09T14:30:00,Caribou Harbour-Waterside,1351.0,45.75625,-62.770311,2017-06-24,2017-11-28,HOBO-10755242,1.0,float,4.999,
2017-11-09T14:45:00,Caribou Harbour-Waterside,1351.0,45.75625,-62.770311,2017-06-24,2017-11-28,HOBO-10755242,1.0,float,5.102,
2017-11-09T15:00:00,Caribou Harbour-Waterside,1351.0,45.75625,-62.770311,2017-06-24,2017-11-28,HOBO-10755242,1.0,float,6.661,
2017-11-09T15:15:00,Caribou Harbour-Waterside,1351.0,45.75625,-62.770311,2017-06-24,2017-11-28,HOBO-10755242,1.0,float,7.293,
2017-11-09T15:30:00,Caribou Harbour-Waterside,1351.0,45.75625,-62.770311,2017-06-24,2017-11-28,HOBO-10755242,1.0,float,8.02,
2017-11-09T15:45:00,Caribou Harbour-Waterside,1351.0,45.75625,-62.770311,2017-06-24,2017-11-28,HOBO-10755242,1.0,float,8.095,
2017-11-09T16:00:00,Caribou Harbour-Waterside,1351.0,45.75625,-62.770311,2017-06-24,2017-11-28,HOBO-10755242,1.0,float,8.145,
2017-11-09T16:15:00,Caribou Harbour-Waterside,1351.0,45.75625,-62.770311,2017-06-24,2017-11-28,HOBO-10755242,1.0,float,8.12,
2017-11-09T16:30:00,Caribou Harbour-Waterside,1351.0,45.75625,-62.770311,2017-06-24,2017-11-28,HOBO-10755242,1.0,float,8.045,
2017-11-09T16:45:00,Caribou Harbour-Waterside,1351.0,45.75625,-62.770311,2017-06-24,2017-11-28,HOBO-10755242,1.0,float,7.97,
2017-11-09T17:00:00,Caribou Harbour-Waterside,1351.0,45.75625,-62.770311,2017-06-24,2017-11-28,HOBO-10755242,1.0,float,7.92,
2017-11-09T17:15:00,Caribou Harbour-Waterside,1351.0,45.75625,-62.770311,2017-06-24,2017-11-28,HOBO-10755242,1.0,float,7.92,
2017-11-09T17:30:00,Caribou Harbour-Waterside,1351.0,45.75625,-62.770311,2017-06-24,2017-11-28,HOBO-10755242,1.0,float,7.945,
2017-11-09T17:45:00,Caribou Harbour-Waterside,1351.0,45.75625,-62.770311,2017-06-24,2017-11-28,HOBO-10755242,1.0,float,7.995,
2017-11-09T18:00:00,Caribou Harbour-Waterside,1351.0,45.75625,-62.770311,2017-06-24,2017-11-28,HOBO-10755242,1.0,float,8.07,
2017-11-09T18:15:00,Caribou Harbour-Waterside,1351.0,45.75625,-62.770311,2017-06-24,2017-11-28,HOBO-10755242,1.0,float,8.12,
2017-11-09T18:30:00,Caribou Harbour-Waterside,1351.0,45.75625,-62.770311,2017-06-24,2017-11-28,HOBO-10755242,1.0,float,8.17,
2017-11-09T18:45:00,Caribou Harbour-Waterside,1351.0,45.75625,-62.770311,2017-06-24,2017-11-28,HOBO-10755242,1.0,float,8.22,
2017-11-09T19:00:00,Caribou Harbour-Waterside,1351.0,45.75625,-62.770311,2017-06-24,2017-11-28,HOBO-10755242,1.0,float,8.245,
2017-11-09T19:15:00,Caribou Harbour-Waterside,1351.0,45.75625,-62.770311,2017-06-24,2017-11-28,HOBO-10755242,1.0,float,8.295,
2017-11-09T19:30:00,Caribou Harbour-Waterside,1351.0,45.75625,-62.770311,2017-06-24,2017-11-28,HOBO-10755242,1.0,float,8.319,
2017-11-09T19:45:00,Caribou Harbour-Waterside,1351.0,45.75625,-62.770311,2017-06-24,2017-11-28,HOBO-10755242,1.0,float,8.344,
2017-11-09T20:00:00,Caribou Harbour-Waterside,1351.0,45.75625,-62.770311,2017-06-24,2017-11-28,HOBO-10755242,1.0,float,8.369,
2017-11-09T20:15:00,Caribou Harbour-Waterside,1351.0,45.75625,-62.770311,2017-06-24,2017-11-28,HOBO-10755242,1.0,float,8.369,
2017-11-09T20:30:00,Caribou Harbour-Waterside,1351.0,45.75625,-62.770311,2017-06-24,2017-11-28,HOBO-10755242,1.0,float,8.369,
2017-11-09T20:45:00,Caribou Harbour-Waterside,1351.0,45.75625,-62.770311,2017-06-24,2017-11-28,HOBO-10755242,1.0,float,8.369,
2017-11-09T21:00:00,Caribou Harbour-Waterside,1351.0,45.75625,-62.770311,2017-06-24,2017-11-28,HOBO-10755242,1.0,float,8.344,
2017-11-09T21:15:00,Caribou Harbour-Waterside,1351.0,45.75625,-62.770311,2017-06-24,2017-11-28,HOBO-10755242,1.0,float,8.319,
2017-11-09T21:30:00,Caribou Harbour-Waterside,1351.0,45.75625,-62.770311,2017-06-24,2017-11-28,HOBO-10755242,1.0,float,8.295,
2017-11-09T21:45:00,Caribou Harbour-Waterside,1351.0,45.75625,-62.770311,2017-06-24,2017-11-28,HOBO-10755242,1.0,float,8.045,
2017-11-09T22:00:00,Caribou Harbour-Waterside,1351.0,45.75625,-62.770311,2017-06-24,2017-11-28,HOBO-10755242,1.0,float,8.045,
2017-11-09T22:15:00,Caribou Harbour-Waterside,1351.0,45.75625,-62.770311,2017-06-24,2017-11-28,HOBO-10755242,1.0,float,8.07,
2017-11-09T22:30:00,Caribou Harbour-Waterside,1351.0,45.75625,-62.770311,2017-06-24,2017-11-28,HOBO-10755242,1.0,float,8.095,
2017-11-09T22:45:00,Caribou Harbour-Waterside,1351.0,45.75625,-62.770311,2017-06-24,2017-11-28,HOBO-10755242,1.0,float,8.045,
2017-11-09T23:00:00,Caribou Harbour-Waterside,1351.0,45.75625,-62.770311,2017-06-24,2017-11-28,HOBO-10755242,1.0,float,7.945,
2017-11-09T23:15:00,Caribou Harbour-Waterside,1351.0,45.75625,-62.770311,2017-06-24,2017-11-28,HOBO-10755242,1.0,float,7.82,
2017-11-09T23:30:00,Caribou Harbour-Waterside,1351.0,45.75625,-62.770311,2017-06-24,2017-11-28,HOBO-10755242,1.0,float,7.72,
2017-11-09T23:45:00,Caribou Harbour-Waterside,1351.0,45.75625,-62.770311,2017-06-24,2017-11-28,HOBO-10755242,1.0,float,7.569,
